Topeka Forbes, KS

3:15 PM CDT on July 25, 2017 (GMT -0500)
Forbes

Weather History for KFOE - March, 2014

Change the Weather History Date:

Wednesday, March 12, 2014

  Actual Average Record
Temperature  
Mean Temperature 42 °F -  
Max Temperature 57 °F 54 °F 80 °F (2006)
Min Temperature 30 °F 31 °F -7 °F (1998)
Degree Days  
Heating Degree Days 22    
Moisture  
Dew Point 25 °F    
Average Humidity 54    
Maximum Humidity 79    
Minimum Humidity 25    
Precipitation  
Precipitation 0.00 in - - ()
Sea Level Pressure  
Sea Level Pressure 30.14 in    
Wind  
Wind Speed 16 mph (NW)    
Max Wind Speed 24 mph    
Max Gust Speed 34 mph    
Visibility 10 miles    
Events      
Averages and records for this station are not official NWS values.
T = Trace of Precipitation, MM = Missing Value Source: NWS Daily Summary

Daily Weather History Graph

Daily Weather History Graph

Search for Another Location

Airport or City:

Trip Planner

Search our weather history database for the weather conditions in past years. The results will help you decide how hot, cold, wet, or windy it might be!

Date:

Astronomy

Mar. 12, 2014 Rise Set
Actual Time 7:38 AM CDT 7:26 PM CDT
Civil Twilight 7:11 AM CDT 7:53 PM CDT
Nautical Twilight 6:41 AM CDT 8:24 PM CDT
Astronomical Twilight 6:09 AM CDT 8:55 PM CDT
Moon 3:59 PM CDT (3/12) 5:09 AM CDT (3/12)
Length of Visible Light 12h 41m
Length of Day
11h 48m
Waxing Gibbous, 85% of the Moon is Illuminated
Mar 12
Waxing Gibbous
Mar 16
Full
Mar 23
Last Quarter
Mar 30
New
Apr 7
First Quarter

Hourly Weather History & Observations

Time (CDT) Temp. Windchill Dew Point Humidity Pressure Visibility Wind Dir Wind Speed Gust Speed Precip Events Conditions
12:11 AM 37.9 °F 27.6 °F 30.0 °F 73% 30.00 in - North 20.7 mph 34.5 mph 0.00 in   Overcast
12:53 AM 39.0 °F 28.3 °F 28.9 °F 67% 30.02 in - NNW 24.2 mph 32.2 mph 0.00 in   Overcast
1:53 AM 39.0 °F 29.3 °F 30.9 °F 73% 30.05 in 10.0 mi NNW 19.6 mph 27.6 mph N/A   Overcast
2:53 AM 39.0 °F 28.8 °F 30.0 °F 70% 30.08 in - NNW 21.9 mph 28.8 mph N/A   Clear
3:53 AM 37.9 °F 27.6 °F 27.0 °F 65% 30.09 in - NNW 20.7 mph 24.2 mph N/A   Partly Cloudy
4:53 AM 35.1 °F 25.2 °F 25.0 °F 67% 30.12 in 10.0 mi NNW 16.1 mph 24.2 mph N/A   Clear
5:53 AM 33.1 °F 22.6 °F 24.1 °F 70% 30.15 in 10.0 mi NNW 16.1 mph - N/A   Clear
6:53 AM 32.0 °F 22.5 °F 23.0 °F 69% 30.18 in 10.0 mi NNW 12.7 mph - N/A   Clear
7:53 AM 30.0 °F 21.7 °F 24.1 °F 79% 30.21 in - NNW 9.2 mph - N/A   Clear
8:53 AM 34.0 °F 25.5 °F 27.0 °F 75% 30.23 in 10.0 mi NNW 11.5 mph - N/A   Clear
9:53 AM 37.9 °F 29.6 °F 26.1 °F 62% 30.25 in 10.0 mi NNW 13.8 mph - N/A   Partly Cloudy
10:53 AM 41.0 °F 34.3 °F 27.0 °F 57% 30.24 in 10.0 mi NW 11.5 mph - N/A   Overcast
11:53 AM 45.0 °F 39.7 °F 27.0 °F 49% 30.22 in 10.0 mi WNW 10.4 mph - N/A   Clear
12:53 PM 48.9 °F - 26.1 °F 41% 30.22 in 10.0 mi NW 12.7 mph 24.2 mph N/A   Clear
1:53 PM 52.0 °F - 28.0 °F 40% 30.19 in 10.0 mi WNW 16.1 mph - N/A   Scattered Clouds
2:53 PM 54.0 °F - 26.1 °F 34% 30.16 in 10.0 mi NW 16.1 mph 23.0 mph N/A   Mostly Cloudy
3:53 PM 53.1 °F - 26.1 °F 35% 30.14 in 10.0 mi WNW 18.4 mph 25.3 mph N/A   Mostly Cloudy
4:53 PM 55.0 °F - 21.0 °F 27% 30.12 in 10.0 mi NW 21.9 mph - N/A   Clear
5:53 PM 55.9 °F - 19.9 °F 25% 30.12 in 10.0 mi NNW 19.6 mph 26.5 mph N/A   Clear
6:53 PM 54.0 °F - 19.9 °F 26% 30.12 in 10.0 mi NNW 11.5 mph - N/A   Clear
7:53 PM 46.0 °F 43.9 °F 21.0 °F 37% 30.14 in 10.0 mi NNW 4.6 mph - N/A   Clear
8:53 PM 39.9 °F - 21.0 °F 47% 30.14 in 10.0 mi Calm Calm - N/A   Clear
9:53 PM 41.0 °F 39.0 °F 21.0 °F 45% 30.14 in 10.0 mi South 3.5 mph - N/A   Clear
10:53 PM 36.0 °F - 21.9 °F 57% 30.14 in 10.0 mi Calm Calm - N/A   Clear
11:53 PM 32.0 °F 27.5 °F 21.9 °F 66% 30.14 in 10.0 mi SSE 4.6 mph - N/A   Clear